Location: Tel Aviv
(32.0670°N, 34.7670°E)
Time: 04:02:02
(UTC+03:00)

Vanguard 2 - Pass Details

Date: 24 January 2022
Orbit: 552 x 2935 km, 32.9° (Epoch: 26 May)

Event Time Altitude Azimuth Distance (km) Brightness Sun altitude
Rises 23:01:10 0° 277° (W) 5,033 11.9 -72.5°
Enters shadow 23:01:39 - 277° (W) 4,904 11.8 -72.6°
Reaches altitude 10° 23:04:00 10° 277° (W) 4,308 - -72.9°
Maximum altitude 23:16:54 90° 11° (N) 2,578 - -74.6°
Drops below altitude 10° 23:34:57 10° 101° (E) 5,764 - -76.4°
Sets 23:39:24 0° 102° (ESE) 6,743 - -76.6°
